ASX454 LIRF-EIDW

Flight info

Callsign ASX454
Flight time 2h 38m
Altitude 38000
Route NEMBO DCT GOVGO DCT AOSTA DCT ORSUD DCT MOLUS DCT IBODI DCT GOTED DCT TRO DCT CLM DCT KOPOR DCT VESAN DCT RATUK DCT SOVAT L613 SANDY L722 ICTAM T421 DIDZA DCT CESQA DCT BIBPE DCT OKTAD DCT MEDOG DCT KRAGY DCT PEMOB M17 VATRY VATRY4L
Aircraft A20N/M-SDE2E3FGHIJ1RWXY/LB1

Departure

Time 2026-05-06 12:43
Airport Rome–Fiumicino Leonardo da Vinci International Airport (LIRF)

Arrival

Time 2026-05-06 15:22
Airport Dublin Airport (EIDW)
Time Latitude Longitude Altitude Speed Heading
2026-05-06 12:22 41.79902 12.26619 12 ft 0 kts 250°
2026-05-06 12:37 41.79895 12.26594 12 ft 4 kts 249°
2026-05-06 12:37 41.79900 12.26559 13 ft 4 kts 313°
2026-05-06 12:37 41.79934 12.26538 13 ft 6 kts 341°
2026-05-06 12:38 41.79997 12.26508 14 ft 12 kts 339°
2026-05-06 12:38 41.80090 12.26460 14 ft 15 kts 340°
2026-05-06 12:38 41.80186 12.26413 14 ft 13 kts 343°
2026-05-06 12:38 41.80271 12.26379 14 ft 13 kts 306°
2026-05-06 12:39 41.80314 12.26265 15 ft 13 kts 295°
2026-05-06 12:39 41.80365 12.26177 17 ft 11 kts 334°
2026-05-06 12:39 41.80443 12.26173 17 ft 12 kts 12°
2026-05-06 12:39 41.80521 12.26231 16 ft 14 kts 54°
2026-05-06 12:40 41.80559 12.26363 14 ft 16 kts 69°
2026-05-06 12:40 41.80600 12.26508 14 ft 16 kts 70°
2026-05-06 12:40 41.80642 12.26665 11 ft 19 kts 70°
2026-05-06 12:40 41.80689 12.26833 11 ft 19 kts 70°
2026-05-06 12:41 41.80732 12.26989 11 ft 15 kts 66°
2026-05-06 12:41 41.80817 12.27037 11 ft 14 kts 342°
2026-05-06 12:41 41.80869 12.27012 12 ft 0 kts 339°
2026-05-06 12:41 41.80870 12.27011 12 ft 0 kts 339°
2026-05-06 12:42 41.80896 12.26998 12 ft 7 kts 340°
2026-05-06 12:42 41.80955 12.26962 12 ft 10 kts 307°
2026-05-06 12:42 41.80941 12.26865 11 ft 12 kts 249°
2026-05-06 12:42 41.80851 12.26545 13 ft 71 kts 250°
2026-05-06 12:43 41.80604 12.25642 16 ft 132 kts 249°
2026-05-06 12:43 41.80220 12.24304 130 ft 169 kts 245°
2026-05-06 12:43 41.79808 12.22826 697 ft 171 kts 246°
2026-05-06 12:43 41.79415 12.21328 1326 ft 176 kts 252°
2026-05-06 12:44 41.79242 12.19627 1764 ft 194 kts 262°
2026-05-06 12:44 41.79189 12.17742 2151 ft 210 kts 264°
2026-05-06 12:44 41.79149 12.15685 2455 ft 233 kts 264°
2026-05-06 12:44 41.79102 12.13442 2900 ft 251 kts 264°
2026-05-06 12:45 41.79045 12.11039 3439 ft 265 kts 265°
2026-05-06 12:45 41.79000 12.08579 4250 ft 268 kts 266°
2026-05-06 12:45 41.79005 12.03658 6050 ft 266 kts 268°
2026-05-06 12:46 41.79157 12.01192 6889 ft 271 kts 284°
2026-05-06 12:46 41.80037 11.99007 7730 ft 278 kts 309°
2026-05-06 12:46 41.81468 11.97251 8571 ft 282 kts 315°
2026-05-06 12:46 41.82945 11.95549 9319 ft 286 kts 315°
2026-05-06 12:47 41.82984 11.95504 9340 ft 286 kts 315°
2026-05-06 12:47 41.84388 11.93880 10097 ft 288 kts 314°
2026-05-06 12:47 41.85910 11.92110 10717 ft 297 kts 315°
2026-05-06 12:47 41.87514 11.90233 11214 ft 310 kts 315°
2026-05-06 12:48 41.89154 11.88316 11925 ft 314 kts 315°
2026-05-06 12:48 41.90783 11.86411 12678 ft 317 kts 315°
2026-05-06 12:48 41.92456 11.84453 13416 ft 319 kts 315°
2026-05-06 12:48 41.94108 11.82518 14131 ft 322 kts 314°
2026-05-06 12:49 41.95789 11.80546 14797 ft 325 kts 315°
2026-05-06 12:49 41.97516 11.78516 15428 ft 330 kts 314°
2026-05-06 12:49 41.99234 11.76493 16050 ft 334 kts 314°
2026-05-06 12:49 42.01003 11.74412 16686 ft 338 kts 314°
2026-05-06 12:50 42.02758 11.72345 17284 ft 342 kts 314°
2026-05-06 12:50 42.04552 11.70229 17881 ft 346 kts 314°
2026-05-06 12:50 42.06372 11.68082 18473 ft 350 kts 314°
2026-05-06 12:50 42.08187 11.65941 19084 ft 352 kts 314°
2026-05-06 12:51 42.10044 11.63748 19690 ft 355 kts 314°
2026-05-06 12:51 42.11909 11.61555 20277 ft 357 kts 314°
2026-05-06 12:51 42.13763 11.59379 20844 ft 359 kts 314°
2026-05-06 12:51 42.15649 11.57160 21400 ft 362 kts 314°
2026-05-06 12:52 42.17559 11.54905 21941 ft 364 kts 313°
2026-05-06 12:52 42.19460 11.52656 22474 ft 367 kts 313°
2026-05-06 12:52 42.21364 11.50396 22999 ft 369 kts 313°
2026-05-06 12:52 42.23299 11.48097 23491 ft 372 kts 313°
2026-05-06 12:53 42.25253 11.45775 23992 ft 375 kts 312°
2026-05-06 12:53 42.27187 11.43473 24471 ft 377 kts 312°
2026-05-06 12:53 42.29172 11.41106 24937 ft 380 kts 312°
2026-05-06 12:53 42.31142 11.38756 25379 ft 383 kts 312°
2026-05-06 12:54 42.33160 11.36349 25864 ft 384 kts 311°
2026-05-06 12:54 42.35141 11.33980 26294 ft 387 kts 311°
2026-05-06 12:54 42.37161 11.31550 26753 ft 388 kts 311°
2026-05-06 12:54 42.39166 11.29139 27159 ft 391 kts 310°
2026-05-06 12:55 42.41212 11.26676 27551 ft 394 kts 310°
2026-05-06 12:55 42.43245 11.24233 27950 ft 396 kts 310°
2026-05-06 12:55 42.45322 11.21739 28358 ft 398 kts 310°
2026-05-06 12:55 42.47376 11.19268 28760 ft 399 kts 310°
2026-05-06 12:56 42.49477 11.16740 29127 ft 402 kts 310°
2026-05-06 12:56 42.51547 11.14244 29485 ft 404 kts 310°
2026-05-06 12:56 42.53653 11.11708 29866 ft 406 kts 310°
2026-05-06 12:56 42.55748 11.09180 30181 ft 408 kts 310°
2026-05-06 12:57 42.57886 11.06600 30537 ft 411 kts 310°
2026-05-06 12:57 42.60011 11.04030 30846 ft 413 kts 310°
2026-05-06 12:57 42.62174 11.01410 31155 ft 416 kts 310°
2026-05-06 12:57 42.64310 10.98823 31470 ft 418 kts 310°
2026-05-06 12:58 42.66482 10.96194 31790 ft 420 kts 310°
2026-05-06 12:58 42.68663 10.93547 32094 ft 421 kts 310°
2026-05-06 12:58 42.70867 10.90873 32374 ft 423 kts 310°
2026-05-06 12:58 42.73062 10.88203 32628 ft 425 kts 310°
2026-05-06 12:59 42.75259 10.85529 32901 ft 427 kts 310°
2026-05-06 12:59 42.77482 10.82820 33184 ft 428 kts 310°
2026-05-06 12:59 42.79696 10.80123 33451 ft 429 kts 310°
2026-05-06 12:59 42.81886 10.77451 33703 ft 430 kts 310°
2026-05-06 13:00 42.84124 10.74718 33995 ft 429 kts 310°
2026-05-06 13:00 42.86342 10.72007 34353 ft 427 kts 310°
2026-05-06 13:00 42.88520 10.69344 34650 ft 426 kts 310°
2026-05-06 13:00 42.90727 10.66638 34844 ft 427 kts 310°
2026-05-06 13:01 42.92951 10.63909 35056 ft 426 kts 310°
2026-05-06 13:01 42.95142 10.61215 35246 ft 427 kts 310°
2026-05-06 13:01 42.97331 10.58521 35437 ft 426 kts 310°
2026-05-06 13:01 42.99528 10.55817 35625 ft 426 kts 310°
2026-05-06 13:02 43.01733 10.53100 35798 ft 426 kts 310°
2026-05-06 13:02 43.03925 10.50400 35966 ft 426 kts 310°
2026-05-06 13:02 43.06132 10.47674 36140 ft 426 kts 310°
2026-05-06 13:02 43.08300 10.44997 36326 ft 425 kts 311°
2026-05-06 13:03 43.10477 10.42301 36475 ft 425 kts 311°
2026-05-06 13:03 43.12687 10.39581 36623 ft 425 kts 311°
2026-05-06 13:03 43.14878 10.36881 36800 ft 425 kts 311°
2026-05-06 13:03 43.17075 10.34189 36976 ft 426 kts 312°
2026-05-06 13:04 43.19361 10.31613 37179 ft 427 kts 314°
2026-05-06 13:04 43.21683 10.29102 37365 ft 427 kts 314°
2026-05-06 13:04 43.24015 10.26597 37540 ft 427 kts 314°
2026-05-06 13:04 43.26361 10.24075 37677 ft 427 kts 315°
2026-05-06 13:05 43.28683 10.21573 37792 ft 427 kts 315°
2026-05-06 13:05 43.33327 10.16556 37884 ft 429 kts 315°
2026-05-06 13:06 43.38015 10.11479 37884 ft 429 kts 315°
2026-05-06 13:06 43.42680 10.06417 37881 ft 429 kts 315°
2026-05-06 13:07 43.47366 10.01318 37890 ft 430 kts 315°
2026-05-06 13:07 43.52036 9.96230 37881 ft 430 kts 314°
2026-05-06 13:08 43.56727 9.91103 37883 ft 430 kts 315°
2026-05-06 13:08 43.61518 9.85859 37883 ft 431 kts 314°
2026-05-06 13:09 43.66399 9.80504 37877 ft 430 kts 314°
2026-05-06 13:09 43.71070 9.75368 37880 ft 430 kts 314°
2026-05-06 13:10 43.75726 9.70241 37880 ft 430 kts 314°
2026-05-06 13:10 43.80402 9.65078 37872 ft 430 kts 314°
2026-05-06 13:11 43.85061 9.59925 37869 ft 430 kts 314°
2026-05-06 13:11 43.89714 9.54766 37866 ft 431 kts 314°
2026-05-06 13:12 43.94395 9.49568 37868 ft 431 kts 314°
2026-05-06 13:12 43.99041 9.44399 37861 ft 431 kts 314°
2026-05-06 13:13 44.03714 9.39186 37867 ft 432 kts 314°
2026-05-06 13:13 44.08458 9.33884 37851 ft 431 kts 313°
2026-05-06 13:14 44.13142 9.28630 37851 ft 431 kts 314°
2026-05-06 13:14 44.17777 9.23443 37847 ft 431 kts 314°
2026-05-06 13:15 44.22457 9.18188 37838 ft 431 kts 314°
2026-05-06 13:15 44.27089 9.12971 37841 ft 431 kts 313°
2026-05-06 13:16 44.31735 9.07725 37833 ft 431 kts 314°
2026-05-06 13:16 44.36369 9.02481 37843 ft 432 kts 313°
2026-05-06 13:17 44.41021 8.97206 37853 ft 431 kts 313°
2026-05-06 13:17 44.45676 8.91914 37832 ft 432 kts 313°
2026-05-06 13:18 44.50333 8.86608 37829 ft 433 kts 314°
2026-05-06 13:18 44.54990 8.81293 37838 ft 433 kts 313°
2026-05-06 13:19 44.59651 8.75961 37832 ft 433 kts 313°
2026-05-06 13:19 44.64295 8.70636 37829 ft 433 kts 313°
2026-05-06 13:20 44.68944 8.65297 37829 ft 433 kts 313°
2026-05-06 13:20 44.73582 8.59955 37801 ft 434 kts 313°
2026-05-06 13:21 44.78271 8.54546 37810 ft 435 kts 314°
2026-05-06 13:21 44.82921 8.49172 37808 ft 434 kts 314°
2026-05-06 13:22 44.87559 8.43798 37790 ft 434 kts 314°
2026-05-06 13:22 44.92226 8.38375 37793 ft 436 kts 314°
2026-05-06 13:23 44.96871 8.32967 37791 ft 436 kts 313°
2026-05-06 13:23 45.01539 8.27497 37777 ft 435 kts 313°
2026-05-06 13:24 45.06185 8.22054 37780 ft 435 kts 313°
2026-05-06 13:24 45.10821 8.16620 37786 ft 435 kts 313°
2026-05-06 13:25 45.15505 8.11159 37808 ft 436 kts 313°
2026-05-06 13:25 45.20152 8.05714 37801 ft 437 kts 313°
2026-05-06 13:26 45.24815 8.00222 37804 ft 437 kts 313°
2026-05-06 13:26 45.29495 7.94692 37818 ft 437 kts 313°
2026-05-06 13:27 45.34148 7.89184 37817 ft 437 kts 314°
2026-05-06 13:27 45.38807 7.83652 37825 ft 437 kts 314°
2026-05-06 13:28 45.43427 7.78155 37835 ft 436 kts 314°
2026-05-06 13:28 45.48087 7.72599 37848 ft 437 kts 314°
2026-05-06 13:29 45.52756 7.67016 37868 ft 439 kts 314°
2026-05-06 13:29 45.57391 7.61466 37871 ft 438 kts 314°
2026-05-06 13:30 45.62046 7.55877 37890 ft 440 kts 314°
2026-05-06 13:30 45.66723 7.50247 37876 ft 439 kts 314°
2026-05-06 13:31 45.71350 7.44660 37867 ft 439 kts 314°
2026-05-06 13:31 45.76030 7.38997 37878 ft 439 kts 314°
2026-05-06 13:32 45.80767 7.33495 37887 ft 443 kts 317°
2026-05-06 13:32 45.85752 7.28377 37898 ft 444 kts 319°
2026-05-06 13:33 45.90786 7.23269 37887 ft 443 kts 319°
2026-05-06 13:33 45.95813 7.18145 37889 ft 445 kts 319°
2026-05-06 13:34 46.00840 7.13007 37870 ft 444 kts 319°
2026-05-06 13:34 46.05854 7.07871 37848 ft 444 kts 319°
2026-05-06 13:35 46.10866 7.02725 37860 ft 443 kts 319°
2026-05-06 13:35 46.15861 6.97606 37890 ft 443 kts 319°
2026-05-06 13:36 46.20874 6.92448 37896 ft 445 kts 319°
2026-05-06 13:36 46.25892 6.87256 37885 ft 445 kts 319°
2026-05-06 13:37 46.30901 6.82055 37888 ft 445 kts 319°
2026-05-06 13:37 46.35880 6.76870 37880 ft 445 kts 319°
2026-05-06 13:38 46.40886 6.71646 37874 ft 445 kts 319°
2026-05-06 13:38 46.45652 6.65974 37878 ft 441 kts 312°
2026-05-06 13:39 46.49935 6.59714 37874 ft 438 kts 309°
2026-05-06 13:39 46.54125 6.53335 37875 ft 438 kts 309°
2026-05-06 13:40 46.58308 6.46968 37880 ft 438 kts 309°
2026-05-06 13:40 46.62504 6.40578 37953 ft 438 kts 309°
2026-05-06 13:41 46.66705 6.34173 37896 ft 438 kts 309°
2026-05-06 13:41 46.70880 6.27765 37877 ft 438 kts 309°
2026-05-06 13:42 46.75058 6.21348 37870 ft 439 kts 309°
2026-05-06 13:42 46.79263 6.14888 37869 ft 438 kts 309°
2026-05-06 13:43 46.83427 6.08475 37871 ft 437 kts 309°
2026-05-06 13:43 46.87589 6.02049 37866 ft 438 kts 309°
2026-05-06 13:44 46.91855 5.95703 37860 ft 440 kts 314°
2026-05-06 13:44 46.96545 5.90031 37851 ft 443 kts 320°
2026-05-06 13:45 47.01554 5.84760 37856 ft 444 kts 321°
2026-05-06 13:45 47.09060 5.76877 37870 ft 444 kts 321°
2026-05-06 13:46 47.14076 5.71580 37859 ft 444 kts 321°
2026-05-06 13:46 47.19053 5.66312 37862 ft 443 kts 321°
2026-05-06 13:47 47.24045 5.60994 37858 ft 443 kts 321°
2026-05-06 13:47 47.28999 5.55696 37859 ft 443 kts 321°
2026-05-06 13:48 47.33952 5.50385 37859 ft 443 kts 321°
2026-05-06 13:48 47.38908 5.45057 37862 ft 442 kts 321°
2026-05-06 13:49 47.43863 5.39716 37864 ft 442 kts 321°
2026-05-06 13:49 47.48834 5.34344 37857 ft 442 kts 321°
2026-05-06 13:50 47.53747 5.28995 37850 ft 441 kts 321°
2026-05-06 13:50 47.58685 5.23617 37854 ft 441 kts 321°
2026-05-06 13:51 47.63621 5.18239 37854 ft 441 kts 321°
2026-05-06 13:51 47.68550 5.12859 37851 ft 442 kts 321°
2026-05-06 13:52 47.73495 5.07454 37849 ft 442 kts 321°
2026-05-06 13:52 47.78387 5.02092 37844 ft 441 kts 321°
2026-05-06 13:53 47.83322 4.96667 37841 ft 441 kts 321°
2026-05-06 13:53 47.88242 4.91250 37839 ft 441 kts 321°
2026-05-06 13:54 47.93143 4.85840 37841 ft 440 kts 321°
2026-05-06 13:54 47.98028 4.80434 37845 ft 440 kts 321°
2026-05-06 13:55 48.02942 4.74983 37843 ft 440 kts 321°
2026-05-06 13:55 48.07845 4.69530 37843 ft 440 kts 321°
2026-05-06 13:56 48.12745 4.64084 37846 ft 441 kts 321°
2026-05-06 13:56 48.17629 4.58657 37854 ft 440 kts 321°
2026-05-06 13:57 48.22529 4.53182 37855 ft 439 kts 321°
2026-05-06 13:57 48.27420 4.47695 37861 ft 439 kts 321°
2026-05-06 13:58 48.32278 4.42227 37859 ft 439 kts 321°
2026-05-06 13:58 48.37127 4.36756 37863 ft 439 kts 321°
2026-05-06 13:59 48.41995 4.31235 37858 ft 439 kts 321°
2026-05-06 13:59 48.46855 4.25697 37864 ft 439 kts 321°
2026-05-06 14:00 48.51698 4.20184 37866 ft 439 kts 321°
2026-05-06 14:00 48.56565 4.14637 37868 ft 438 kts 321°
2026-05-06 14:01 48.61392 4.09119 37868 ft 438 kts 321°
2026-05-06 14:01 48.66225 4.03584 37869 ft 438 kts 321°
2026-05-06 14:02 48.71066 3.98025 37866 ft 438 kts 321°
2026-05-06 14:02 48.75910 3.92449 37876 ft 437 kts 321°
2026-05-06 14:03 48.80727 3.86893 37871 ft 437 kts 321°
2026-05-06 14:03 48.85525 3.81344 37865 ft 437 kts 321°
2026-05-06 14:04 48.90343 3.75758 37861 ft 436 kts 321°
2026-05-06 14:04 48.95166 3.70153 37860 ft 436 kts 321°
2026-05-06 14:05 48.99964 3.64562 37861 ft 436 kts 321°
2026-05-06 14:05 49.04722 3.59003 37861 ft 435 kts 321°
2026-05-06 14:06 49.09537 3.53363 37851 ft 435 kts 321°
2026-05-06 14:06 49.14321 3.47773 37855 ft 436 kts 321°
2026-05-06 14:07 49.19107 3.42165 37863 ft 435 kts 321°
2026-05-06 14:07 49.23879 3.36550 37869 ft 435 kts 321°
2026-05-06 14:08 49.28672 3.30866 37885 ft 435 kts 320°
2026-05-06 14:08 49.33440 3.25190 37877 ft 435 kts 320°
2026-05-06 14:09 49.38207 3.19513 37874 ft 435 kts 320°
2026-05-06 14:09 49.42966 3.13838 37881 ft 435 kts 320°
2026-05-06 14:10 49.47728 3.08145 37892 ft 435 kts 321°
2026-05-06 14:10 49.52479 3.02454 37888 ft 435 kts 321°
2026-05-06 14:11 49.57234 2.96742 37893 ft 434 kts 321°
2026-05-06 14:11 49.61951 2.91066 37893 ft 433 kts 321°
2026-05-06 14:12 49.66708 2.85325 37885 ft 433 kts 321°
2026-05-06 14:12 49.71408 2.79639 37883 ft 433 kts 321°
2026-05-06 14:13 49.76136 2.73902 37881 ft 433 kts 321°
2026-05-06 14:13 49.80852 2.68164 37887 ft 433 kts 321°
2026-05-06 14:14 49.85565 2.62417 37892 ft 433 kts 321°
2026-05-06 14:14 49.90295 2.56635 37893 ft 432 kts 321°
2026-05-06 14:15 49.94982 2.50892 37889 ft 432 kts 321°
2026-05-06 14:15 49.99689 2.45108 37882 ft 432 kts 321°
2026-05-06 14:16 50.04380 2.39329 37883 ft 431 kts 321°
2026-05-06 14:16 50.09077 2.33525 37875 ft 431 kts 320°
2026-05-06 14:17 50.13727 2.27763 37885 ft 431 kts 320°
2026-05-06 14:17 50.18409 2.21966 37888 ft 431 kts 320°
2026-05-06 14:18 50.23080 2.16156 37898 ft 430 kts 320°
2026-05-06 14:18 50.27753 2.10328 37898 ft 430 kts 320°
2026-05-06 14:19 50.32393 2.04522 37900 ft 430 kts 320°
2026-05-06 14:19 50.37049 1.98684 37900 ft 429 kts 320°
2026-05-06 14:20 50.41698 1.92833 37902 ft 429 kts 320°
2026-05-06 14:20 50.46326 1.86998 37906 ft 429 kts 320°
2026-05-06 14:21 50.50948 1.81155 37913 ft 429 kts 320°
2026-05-06 14:21 50.55565 1.75300 37912 ft 429 kts 320°
2026-05-06 14:22 50.60191 1.69421 37920 ft 428 kts 320°
2026-05-06 14:22 50.64813 1.63529 37918 ft 428 kts 320°
2026-05-06 14:23 50.69423 1.57636 37920 ft 428 kts 320°
2026-05-06 14:23 50.74034 1.51721 37918 ft 428 kts 320°
2026-05-06 14:24 50.78628 1.45757 37916 ft 427 kts 319°
2026-05-06 14:24 50.83050 1.39631 37920 ft 427 kts 318°
2026-05-06 14:25 50.87482 1.33426 37923 ft 426 kts 317°
2026-05-06 14:25 50.91921 1.27177 37928 ft 426 kts 317°
2026-05-06 14:26 50.96343 1.20957 37924 ft 426 kts 317°
2026-05-06 14:26 51.00720 1.14712 37922 ft 426 kts 314°
2026-05-06 14:27 51.04582 1.07640 37926 ft 424 kts 304°
2026-05-06 14:27 51.07623 0.99713 37929 ft 424 kts 295°
2026-05-06 14:28 51.09844 0.91050 37933 ft 423 kts 289°
2026-05-06 14:28 51.11766 0.82231 37932 ft 423 kts 288°
2026-05-06 14:29 51.13670 0.73454 37798 ft 422 kts 288°
2026-05-06 14:29 51.15576 0.64615 37896 ft 423 kts 288°
2026-05-06 14:30 51.17464 0.55812 37926 ft 423 kts 288°
2026-05-06 14:30 51.19347 0.46982 37935 ft 422 kts 288°
2026-05-06 14:31 51.21216 0.38172 37938 ft 422 kts 288°
2026-05-06 14:31 51.23081 0.29335 37941 ft 422 kts 288°
2026-05-06 14:32 51.24955 0.20460 37947 ft 422 kts 288°
2026-05-06 14:32 51.26815 0.11613 37951 ft 422 kts 288°
2026-05-06 14:33 51.28656 0.02807 37953 ft 421 kts 288°
2026-05-06 14:33 51.30501 -0.06069 37955 ft 421 kts 288°
2026-05-06 14:34 51.32330 -0.14913 37957 ft 420 kts 288°
2026-05-06 14:34 51.34146 -0.23733 37960 ft 419 kts 287°
2026-05-06 14:35 51.35949 -0.32532 37957 ft 419 kts 287°
2026-05-06 14:35 51.37756 -0.41386 37958 ft 420 kts 288°
2026-05-06 14:36 51.39554 -0.50240 37961 ft 419 kts 288°
2026-05-06 14:36 51.41345 -0.59097 37963 ft 418 kts 288°
2026-05-06 14:37 51.43118 -0.67907 37965 ft 418 kts 287°
2026-05-06 14:37 51.44879 -0.76728 38017 ft 417 kts 287°
2026-05-06 14:38 51.46647 -0.85604 37983 ft 417 kts 287°
2026-05-06 14:38 51.48393 -0.94410 37974 ft 416 kts 287°
2026-05-06 14:39 51.50135 -1.03236 37966 ft 416 kts 287°
2026-05-06 14:39 51.51932 -1.12035 37965 ft 416 kts 288°
2026-05-06 14:40 51.53650 -1.20854 37965 ft 416 kts 286°
2026-05-06 14:40 51.55291 -1.29717 37966 ft 416 kts 286°
2026-05-06 14:41 51.56940 -1.38587 37967 ft 416 kts 286°
2026-05-06 14:41 51.58587 -1.47449 37966 ft 415 kts 286°
2026-05-06 14:42 51.60236 -1.56339 37963 ft 415 kts 286°
2026-05-06 14:42 51.61872 -1.65203 37968 ft 415 kts 285°
2026-05-06 14:43 51.63502 -1.74101 37965 ft 415 kts 285°
2026-05-06 14:43 51.65112 -1.82926 37969 ft 416 kts 285°
2026-05-06 14:44 51.66730 -1.91815 37961 ft 416 kts 285°
2026-05-06 14:45 51.69159 -2.05234 37966 ft 416 kts 285°
2026-05-06 14:45 51.70754 -2.14108 37965 ft 416 kts 285°
2026-05-06 14:46 51.72358 -2.23078 37962 ft 415 kts 285°
2026-05-06 14:46 51.73934 -2.31929 37968 ft 415 kts 285°
2026-05-06 14:47 51.75518 -2.40869 37972 ft 415 kts 285°
2026-05-06 14:47 51.77089 -2.49774 37978 ft 416 kts 285°
2026-05-06 14:48 51.78657 -2.58709 37978 ft 416 kts 285°
2026-05-06 14:48 51.80224 -2.67690 37983 ft 416 kts 285°
2026-05-06 14:49 51.81773 -2.76643 37975 ft 416 kts 285°
2026-05-06 14:49 51.83324 -2.85635 37983 ft 415 kts 285°
2026-05-06 14:50 51.84859 -2.94568 37983 ft 415 kts 285°
2026-05-06 14:50 51.86394 -3.03541 37980 ft 415 kts 285°
2026-05-06 14:51 51.87910 -3.12449 37971 ft 415 kts 285°
2026-05-06 14:51 51.89430 -3.21428 37974 ft 416 kts 285°
2026-05-06 14:52 51.90944 -3.30421 37973 ft 416 kts 285°
2026-05-06 14:52 51.92448 -3.39404 37973 ft 416 kts 285°
2026-05-06 14:53 51.93954 -3.48450 37976 ft 416 kts 285°
2026-05-06 14:53 51.95358 -3.57500 37968 ft 415 kts 282°
2026-05-06 14:54 51.96518 -3.66615 37969 ft 415 kts 281°
2026-05-06 14:54 51.97661 -3.75765 37970 ft 415 kts 281°
2026-05-06 14:55 51.98798 -3.84879 37971 ft 415 kts 282°
2026-05-06 14:55 51.99368 -3.89463 37643 ft 420 kts 281°
2026-05-06 14:55 51.99944 -3.94101 37134 ft 423 kts 281°
2026-05-06 14:55 52.00516 -3.98732 36583 ft 425 kts 281°
2026-05-06 14:56 52.01096 -4.03438 36017 ft 427 kts 281°
2026-05-06 14:56 52.01711 -4.08121 35406 ft 430 kts 285°
2026-05-06 14:56 52.02728 -4.12705 34878 ft 428 kts 294°
2026-05-06 14:56 52.04116 -4.16930 34396 ft 425 kts 301°
2026-05-06 14:57 52.05685 -4.20960 33827 ft 423 kts 302°
2026-05-06 14:57 52.07261 -4.24922 33155 ft 423 kts 302°
2026-05-06 14:57 52.08843 -4.28904 32436 ft 424 kts 302°
2026-05-06 14:57 52.10424 -4.32896 31704 ft 424 kts 302°
2026-05-06 14:58 52.12032 -4.36943 31056 ft 423 kts 302°
2026-05-06 14:58 52.13608 -4.40919 30538 ft 417 kts 302°
2026-05-06 14:58 52.15157 -4.44854 29986 ft 413 kts 302°
2026-05-06 14:58 52.16682 -4.48744 29411 ft 410 kts 302°
2026-05-06 14:59 52.18199 -4.52627 28832 ft 407 kts 302°
2026-05-06 14:59 52.19691 -4.56456 28273 ft 403 kts 302°
2026-05-06 14:59 52.21188 -4.60308 27703 ft 400 kts 302°
2026-05-06 14:59 52.22658 -4.64098 27140 ft 397 kts 302°
2026-05-06 15:00 52.24133 -4.67910 26584 ft 394 kts 301°
2026-05-06 15:00 52.25569 -4.71638 26055 ft 391 kts 301°
2026-05-06 15:00 52.27003 -4.75362 25514 ft 388 kts 301°
2026-05-06 15:00 52.28444 -4.79105 24938 ft 386 kts 302°
2026-05-06 15:01 52.29850 -4.82761 24367 ft 385 kts 302°
2026-05-06 15:01 52.31268 -4.86449 23890 ft 381 kts 302°
2026-05-06 15:01 52.32667 -4.90092 23446 ft 377 kts 302°
2026-05-06 15:01 52.34030 -4.93648 23021 ft 373 kts 302°
2026-05-06 15:02 52.35393 -4.97208 22593 ft 369 kts 302°
2026-05-06 15:02 52.36745 -5.00742 22159 ft 365 kts 302°
2026-05-06 15:02 52.38072 -5.04217 21738 ft 362 kts 301°
2026-05-06 15:02 52.39402 -5.07706 21305 ft 359 kts 301°
2026-05-06 15:03 52.40713 -5.11149 20887 ft 356 kts 301°
2026-05-06 15:03 52.41999 -5.14532 20467 ft 353 kts 301°
2026-05-06 15:03 52.43295 -5.17945 20043 ft 350 kts 301°
2026-05-06 15:03 52.44570 -5.21307 19630 ft 348 kts 301°
2026-05-06 15:04 52.45830 -5.24636 19221 ft 345 kts 301°
2026-05-06 15:04 52.47092 -5.27975 18809 ft 343 kts 301°
2026-05-06 15:04 52.48337 -5.31274 18405 ft 340 kts 301°
2026-05-06 15:04 52.49561 -5.34522 18011 ft 338 kts 301°
2026-05-06 15:05 52.50789 -5.37784 17620 ft 335 kts 301°
2026-05-06 15:05 52.52009 -5.41030 17223 ft 332 kts 301°
2026-05-06 15:05 52.53203 -5.44208 16844 ft 330 kts 301°
2026-05-06 15:05 52.54423 -5.47370 16448 ft 328 kts 306°
2026-05-06 15:06 52.56075 -5.49933 16042 ft 328 kts 326°
2026-05-06 15:06 52.58139 -5.51479 15663 ft 328 kts 340°
2026-05-06 15:06 52.60324 -5.52573 15287 ft 326 kts 342°
2026-05-06 15:06 52.62456 -5.53608 14917 ft 323 kts 342°
2026-05-06 15:07 52.64614 -5.54676 14538 ft 321 kts 341°
2026-05-06 15:07 52.66731 -5.55746 14171 ft 319 kts 341°
2026-05-06 15:07 52.68834 -5.56822 13803 ft 317 kts 341°
2026-05-06 15:07 52.70927 -5.57898 13439 ft 315 kts 341°
2026-05-06 15:08 52.73008 -5.58972 13078 ft 313 kts 341°
2026-05-06 15:08 52.75048 -5.60029 12718 ft 311 kts 341°
2026-05-06 15:08 52.77097 -5.61093 12359 ft 309 kts 341°
2026-05-06 15:08 52.79154 -5.62165 12001 ft 307 kts 341°
2026-05-06 15:09 52.81155 -5.63207 11654 ft 305 kts 341°
2026-05-06 15:09 52.83181 -5.64265 11299 ft 303 kts 341°
2026-05-06 15:09 52.85152 -5.65297 10952 ft 301 kts 341°
2026-05-06 15:09 52.87146 -5.66352 10604 ft 299 kts 341°
2026-05-06 15:10 52.89125 -5.67402 10254 ft 297 kts 341°
2026-05-06 15:10 52.91064 -5.68426 10014 ft 290 kts 341°
2026-05-06 15:10 52.92948 -5.69417 9980 ft 277 kts 341°
2026-05-06 15:10 52.94767 -5.70373 9703 ft 274 kts 341°
2026-05-06 15:11 52.96557 -5.71311 9480 ft 269 kts 341°
2026-05-06 15:11 52.98329 -5.72241 9231 ft 265 kts 341°
2026-05-06 15:11 53.00071 -5.73157 8963 ft 262 kts 341°
2026-05-06 15:11 53.01789 -5.74061 8683 ft 261 kts 341°
2026-05-06 15:12 53.03524 -5.74975 8397 ft 259 kts 341°
2026-05-06 15:12 53.05238 -5.75879 8110 ft 258 kts 341°
2026-05-06 15:12 53.06929 -5.76772 7829 ft 256 kts 341°
2026-05-06 15:12 53.08618 -5.77663 7548 ft 255 kts 341°
2026-05-06 15:13 53.10296 -5.78550 7267 ft 253 kts 341°
2026-05-06 15:13 53.11979 -5.79437 6983 ft 252 kts 341°
2026-05-06 15:13 53.13620 -5.80299 6703 ft 251 kts 341°
2026-05-06 15:13 53.15281 -5.81174 6419 ft 249 kts 341°
2026-05-06 15:14 53.16919 -5.82041 6136 ft 248 kts 341°
2026-05-06 15:14 53.18560 -5.82911 5859 ft 247 kts 341°
2026-05-06 15:14 53.20187 -5.83774 5586 ft 245 kts 341°
2026-05-06 15:14 53.21811 -5.84638 5305 ft 245 kts 341°
2026-05-06 15:15 53.23440 -5.85504 5022 ft 243 kts 341°
2026-05-06 15:15 53.25048 -5.86362 4745 ft 242 kts 341°
2026-05-06 15:15 53.26634 -5.87207 4476 ft 239 kts 341°
2026-05-06 15:15 53.28218 -5.88052 4200 ft 236 kts 341°
2026-05-06 15:16 53.29768 -5.88882 3944 ft 233 kts 342°
2026-05-06 15:16 53.31290 -5.89698 3688 ft 231 kts 342°
2026-05-06 15:16 53.32809 -5.90514 3434 ft 228 kts 342°
2026-05-06 15:16 53.34294 -5.91310 3186 ft 225 kts 343°
2026-05-06 15:17 53.35775 -5.92101 3017 ft 221 kts 343°
2026-05-06 15:17 53.37255 -5.92891 3010 ft 223 kts 343°
2026-05-06 15:17 53.38733 -5.93684 2999 ft 224 kts 341°
2026-05-06 15:17 53.40035 -5.94989 2936 ft 223 kts 307°
2026-05-06 15:18 53.40604 -5.97330 2887 ft 211 kts 278°
2026-05-06 15:18 53.40744 -5.99684 2899 ft 202 kts 273°
2026-05-06 15:18 53.40820 -6.01970 2898 ft 192 kts 272°
2026-05-06 15:18 53.40906 -6.04160 2647 ft 187 kts 274°
2026-05-06 15:19 53.41008 -6.06267 2412 ft 174 kts 274°
2026-05-06 15:19 53.41113 -6.08237 2179 ft 167 kts 274°
2026-05-06 15:19 53.41217 -6.10160 1976 ft 164 kts 274°
2026-05-06 15:19 53.41317 -6.11988 1739 ft 151 kts 274°
2026-05-06 15:20 53.41408 -6.13668 1533 ft 143 kts 274°
2026-05-06 15:20 53.41497 -6.15332 1357 ft 143 kts 274°
2026-05-06 15:20 53.41585 -6.16984 1173 ft 144 kts 275°
2026-05-06 15:20 53.41678 -6.18669 981 ft 143 kts 274°
2026-05-06 15:21 53.41763 -6.20306 789 ft 143 kts 276°
2026-05-06 15:21 53.41861 -6.21966 596 ft 143 kts 275°
2026-05-06 15:21 53.41950 -6.23627 407 ft 142 kts 276°
2026-05-06 15:21 53.42039 -6.25262 235 ft 142 kts 274°
2026-05-06 15:22 53.42126 -6.26764 223 ft 107 kts 275°
2026-05-06 15:22 53.42171 -6.27707 232 ft 48 kts 278°
2026-05-06 15:22 53.42225 -6.28162 235 ft 33 kts 300°
2026-05-06 15:22 53.42340 -6.28325 238 ft 14 kts 13°
2026-05-06 15:23 53.42376 -6.28194 237 ft 13 kts 94°
2026-05-06 15:23 53.42365 -6.28027 235 ft 15 kts 96°
2026-05-06 15:23 53.42353 -6.27843 234 ft 16 kts 96°
2026-05-06 15:23 53.42342 -6.27637 231 ft 18 kts 95°
2026-05-06 15:24 53.42330 -6.27424 231 ft 18 kts 96°
2026-05-06 15:24 53.42317 -6.27207 228 ft 19 kts 96°
2026-05-06 15:24 53.42304 -6.26975 227 ft 20 kts 95°
2026-05-06 15:24 53.42291 -6.26714 224 ft 23 kts 95°
2026-05-06 15:25 53.42276 -6.26434 220 ft 24 kts 95°
2026-05-06 15:25 53.42259 -6.26157 214 ft 21 kts 95°
2026-05-06 15:25 53.42292 -6.25928 213 ft 21 kts 54°
2026-05-06 15:25 53.42396 -6.25745 211 ft 21 kts 45°
2026-05-06 15:26 53.42499 -6.25569 209 ft 21 kts 46°
2026-05-06 15:26 53.42604 -6.25385 208 ft 21 kts 46°
2026-05-06 15:26 53.42703 -6.25220 208 ft 17 kts 45°
2026-05-06 15:26 53.42789 -6.25074 208 ft 17 kts 38°
2026-05-06 15:27 53.42879 -6.24943 209 ft 16 kts 50°
2026-05-06 15:27 53.42954 -6.24824 212 ft 11 kts 19°
2026-05-06 15:27 53.43003 -6.24815 212 ft 2 kts